User: anonymous   Login
Location: York
(31.8935°S, 116.7682°E)
Time: 17:00:54
(UTC+08:00)
Language:

Explorer 7 - Orbit

View from above orbital plane
View from above orbital plane
View from above satellite
View from above satellite

Ground track
Ground track

The orbit data is extracted from the following two-line orbital elements,

1 00022U 59009A   22267.85900988  .00002455  00000-0  19549-3 0  9990
2 00022  50.2822 165.9990 0133702 191.3696 168.4223 14.97452822594520
Epoch (UTC): 24 September 2022 20:36:58
Eccentricity: 0.0133702
inclination: 50.2822°
perigee height: 482 km
apogee height: 668 km
right ascension of ascending node: 165.9990°
argument of perigee: 191.3696°
revolutions per day: 14.97452822
mean anomaly at epoch: 168.4223°
orbit number at epoch: 59452

The dashed part of the orbit path shows where the satellite is in the earth's shadow,  

DLR